BTK6362 WIII-WAHS

Flight info

Callsign BTK6362
Flight time 0h 41m
Altitude 27000
Route CA
Aircraft A320/M-SDE3FGHIRWY/LB1

Departure

Time 2026-04-13 14:04
Airport Soekarno-Hatta International Airport (WIII)

Arrival

Time 2026-04-13 14:45
Airport Jenderal Ahmad Yani Airport (WAHS)
Time Latitude Longitude Altitude Speed Heading
2026-04-13 13:38 -6.12242 106.64908 38 ft 0 kts 143°
2026-04-13 13:54 -6.12240 106.64907 38 ft 2 kts 143°
2026-04-13 13:54 -6.12220 106.64892 38 ft 4 kts 143°
2026-04-13 13:54 -6.12199 106.64876 38 ft 4 kts 138°
2026-04-13 13:55 -6.12183 106.64856 38 ft 4 kts 102°
2026-04-13 13:55 -6.12185 106.64832 36 ft 4 kts 63°
2026-04-13 13:55 -6.12198 106.64808 38 ft 3 kts 67°
2026-04-13 13:55 -6.12206 106.64789 38 ft 4 kts 61°
2026-04-13 13:56 -6.12222 106.64768 37 ft 4 kts 28°
2026-04-13 13:56 -6.12243 106.64764 38 ft 2 kts 339°
2026-04-13 13:56 -6.12257 106.64769 38 ft 0 kts 339°
2026-04-13 13:59 -6.12254 106.64768 36 ft 3 kts 339°
2026-04-13 13:59 -6.12197 106.64747 38 ft 11 kts 340°
2026-04-13 13:59 -6.12131 106.64722 38 ft 9 kts 338°
2026-04-13 14:00 -6.12092 106.64707 37 ft 8 kts 338°
2026-04-13 14:00 -6.12028 106.64681 39 ft 6 kts 336°
2026-04-13 14:00 -6.11997 106.64651 39 ft 10 kts 296°
2026-04-13 14:00 -6.12017 106.64577 39 ft 13 kts 246°
2026-04-13 14:01 -6.12059 106.64476 39 ft 17 kts 248°
2026-04-13 14:01 -6.12105 106.64361 39 ft 18 kts 248°
2026-04-13 14:01 -6.12155 106.64237 39 ft 20 kts 248°
2026-04-13 14:01 -6.12209 106.64105 39 ft 21 kts 248°
2026-04-13 14:02 -6.12258 106.63973 39 ft 17 kts 259°
2026-04-13 14:02 -6.12198 106.63888 41 ft 15 kts 346°
2026-04-13 14:02 -6.12103 106.63899 41 ft 13 kts 11°
2026-04-13 14:02 -6.12075 106.63949 40 ft 2 kts 68°
2026-04-13 14:03 -6.12065 106.63973 40 ft 11 kts 68°
2026-04-13 14:03 -6.11947 106.64275 40 ft 84 kts 69°
2026-04-13 14:03 -6.11653 106.65013 42 ft 142 kts 68°
2026-04-13 14:03 -6.11231 106.66078 130 ft 179 kts 66°
2026-04-13 14:04 -6.10721 106.67235 770 ft 183 kts 69°
2026-04-13 14:04 -6.10147 106.68377 1481 ft 188 kts 54°
2026-04-13 14:04 -6.09247 106.69425 1824 ft 210 kts 48°
2026-04-13 14:04 -6.08169 106.70543 2145 ft 236 kts 47°
2026-04-13 14:05 -6.06959 106.71771 2564 ft 258 kts 47°
2026-04-13 14:05 -6.05670 106.73082 3344 ft 266 kts 47°
2026-04-13 14:05 -6.04374 106.74406 4319 ft 266 kts 47°
2026-04-13 14:05 -6.03075 106.75740 5223 ft 269 kts 47°
2026-04-13 14:06 -6.01759 106.77101 6054 ft 274 kts 47°
2026-04-13 14:06 -6.00423 106.78490 6862 ft 279 kts 47°
2026-04-13 14:06 -5.99165 106.79985 7634 ft 283 kts 59°
2026-04-13 14:06 -5.98400 106.81807 8392 ft 286 kts 78°
2026-04-13 14:07 -5.98265 106.83802 9137 ft 289 kts 97°
2026-04-13 14:07 -5.98761 106.85762 9865 ft 292 kts 110°
2026-04-13 14:07 -5.99435 106.87700 10585 ft 297 kts 110°
2026-04-13 14:07 -6.00144 106.89730 10839 ft 320 kts 110°
2026-04-13 14:08 -6.00905 106.91914 11013 ft 342 kts 110°
2026-04-13 14:08 -6.01703 106.94215 11458 ft 353 kts 110°
2026-04-13 14:08 -6.02509 106.96565 12078 ft 359 kts 110°
2026-04-13 14:08 -6.03323 106.98950 12708 ft 363 kts 110°
2026-04-13 14:09 -6.04147 107.01366 13327 ft 367 kts 110°
2026-04-13 14:09 -6.04979 107.03804 13946 ft 371 kts 110°
2026-04-13 14:09 -6.05820 107.06266 14557 ft 374 kts 110°
2026-04-13 14:09 -6.06659 107.08713 15148 ft 377 kts 110°
2026-04-13 14:10 -6.07517 107.11218 15722 ft 381 kts 110°
2026-04-13 14:10 -6.08382 107.13745 16278 ft 384 kts 110°
2026-04-13 14:10 -6.09256 107.16294 16825 ft 387 kts 110°
2026-04-13 14:10 -6.10160 107.18855 17357 ft 390 kts 112°
2026-04-13 14:11 -6.11178 107.21398 17883 ft 393 kts 114°
2026-04-13 14:11 -6.12280 107.23917 18390 ft 396 kts 115°
2026-04-13 14:11 -6.13431 107.26445 18891 ft 399 kts 115°
2026-04-13 14:11 -6.14594 107.28987 19376 ft 402 kts 115°
2026-04-13 14:12 -6.15750 107.31553 19857 ft 404 kts 115°
2026-04-13 14:12 -6.16915 107.34179 20330 ft 407 kts 114°
2026-04-13 14:12 -6.18058 107.36791 20778 ft 410 kts 114°
2026-04-13 14:12 -6.19202 107.39419 21213 ft 412 kts 114°
2026-04-13 14:13 -6.20338 107.42036 21638 ft 415 kts 114°
2026-04-13 14:13 -6.21495 107.44701 22050 ft 417 kts 114°
2026-04-13 14:13 -6.22659 107.47378 22457 ft 420 kts 113°
2026-04-13 14:14 -6.25007 107.52779 23248 ft 424 kts 113°
2026-04-13 14:14 -6.26190 107.55501 23631 ft 426 kts 113°
2026-04-13 14:14 -6.27380 107.58236 23993 ft 429 kts 113°
2026-04-13 14:14 -6.28578 107.60987 24360 ft 431 kts 113°
2026-04-13 14:15 -6.29781 107.63750 24721 ft 433 kts 113°
2026-04-13 14:15 -6.30990 107.66525 25074 ft 434 kts 113°
2026-04-13 14:15 -6.32205 107.69312 25427 ft 436 kts 113°
2026-04-13 14:15 -6.33423 107.72108 25771 ft 438 kts 114°
2026-04-13 14:16 -6.34233 107.73968 25989 ft 439 kts 114°
2026-04-13 14:16 -6.35872 107.77734 26412 ft 441 kts 114°
2026-04-13 14:16 -6.37104 107.80564 26724 ft 443 kts 114°
2026-04-13 14:16 -6.37922 107.82446 26893 ft 444 kts 114°
2026-04-13 14:17 -6.39154 107.85280 26946 ft 440 kts 114°
2026-04-13 14:17 -6.40372 107.88084 26948 ft 436 kts 114°
2026-04-13 14:17 -6.41585 107.90872 26958 ft 435 kts 114°
2026-04-13 14:17 -6.42798 107.93655 26943 ft 434 kts 114°
2026-04-13 14:18 -6.44009 107.96435 26943 ft 434 kts 114°
2026-04-13 14:18 -6.45216 107.99215 26961 ft 434 kts 114°
2026-04-13 14:18 -6.46422 108.01999 26950 ft 434 kts 114°
2026-04-13 14:18 -6.47628 108.04783 26948 ft 434 kts 114°
2026-04-13 14:19 -6.48831 108.07562 26957 ft 434 kts 114°
2026-04-13 14:19 -6.50038 108.10344 26950 ft 434 kts 114°
2026-04-13 14:19 -6.51242 108.13125 26952 ft 434 kts 114°
2026-04-13 14:19 -6.52444 108.15904 26946 ft 433 kts 114°
2026-04-13 14:20 -6.53645 108.18682 26941 ft 433 kts 114°
2026-04-13 14:20 -6.54847 108.21458 26944 ft 433 kts 114°
2026-04-13 14:20 -6.56051 108.24230 26936 ft 433 kts 114°
2026-04-13 14:20 -6.57257 108.27003 26934 ft 433 kts 114°
2026-04-13 14:21 -6.58459 108.29776 26936 ft 433 kts 114°
2026-04-13 14:21 -6.59660 108.32550 26937 ft 433 kts 114°
2026-04-13 14:21 -6.60859 108.35325 26937 ft 433 kts 114°
2026-04-13 14:21 -6.62060 108.38099 26934 ft 433 kts 114°
2026-04-13 14:22 -6.63263 108.40875 26932 ft 433 kts 114°
2026-04-13 14:22 -6.64462 108.43652 26936 ft 433 kts 114°
2026-04-13 14:22 -6.65663 108.46430 26933 ft 433 kts 114°
2026-04-13 14:22 -6.66863 108.49203 26933 ft 433 kts 114°
2026-04-13 14:23 -6.68067 108.51986 26935 ft 433 kts 114°
2026-04-13 14:23 -6.69250 108.54774 26938 ft 433 kts 111°
2026-04-13 14:23 -6.70075 108.57685 26937 ft 434 kts 101°
2026-04-13 14:23 -6.70560 108.60681 26937 ft 434 kts 99°
2026-04-13 14:24 -6.71034 108.63680 26932 ft 434 kts 99°
2026-04-13 14:24 -6.71512 108.66682 26933 ft 435 kts 99°
2026-04-13 14:24 -6.71992 108.69680 26935 ft 435 kts 99°
2026-04-13 14:24 -6.72475 108.72689 26937 ft 435 kts 99°
2026-04-13 14:25 -6.72958 108.75691 26933 ft 435 kts 99°
2026-04-13 14:25 -6.73442 108.78696 26937 ft 435 kts 99°
2026-04-13 14:25 -6.73923 108.81702 26938 ft 435 kts 99°
2026-04-13 14:25 -6.74399 108.84707 26942 ft 435 kts 99°
2026-04-13 14:26 -6.74878 108.87712 26942 ft 435 kts 99°
2026-04-13 14:26 -6.75353 108.90677 26926 ft 435 kts 100°
2026-04-13 14:26 -6.75835 108.93682 26675 ft 434 kts 99°
2026-04-13 14:26 -6.76315 108.96674 26417 ft 433 kts 99°
2026-04-13 14:27 -6.76791 108.99654 26123 ft 429 kts 99°
2026-04-13 14:27 -6.77259 109.02601 25522 ft 425 kts 99°
2026-04-13 14:27 -6.77722 109.05526 24924 ft 422 kts 99°
2026-04-13 14:27 -6.78180 109.08424 24341 ft 418 kts 99°
2026-04-13 14:28 -6.78638 109.11293 23780 ft 413 kts 99°
2026-04-13 14:28 -6.79093 109.14131 23235 ft 409 kts 99°
2026-04-13 14:28 -6.79521 109.16942 22711 ft 405 kts 98°
2026-04-13 14:28 -6.79918 109.19730 22202 ft 400 kts 98°
2026-04-13 14:29 -6.80298 109.22489 21727 ft 396 kts 98°
2026-04-13 14:29 -6.80672 109.25220 21253 ft 392 kts 98°
2026-04-13 14:29 -6.81045 109.27921 20787 ft 388 kts 98°
2026-04-13 14:29 -6.81416 109.30597 20322 ft 385 kts 98°
2026-04-13 14:30 -6.81787 109.33251 19841 ft 381 kts 98°
2026-04-13 14:30 -6.82157 109.35883 19367 ft 379 kts 98°
2026-04-13 14:30 -6.82526 109.38499 18881 ft 376 kts 98°
2026-04-13 14:30 -6.82896 109.41098 18398 ft 374 kts 98°
2026-04-13 14:31 -6.83264 109.43687 17900 ft 373 kts 98°
2026-04-13 14:31 -6.83629 109.46265 17420 ft 371 kts 98°
2026-04-13 14:31 -6.83989 109.48831 16902 ft 370 kts 98°
2026-04-13 14:31 -6.84346 109.51394 16408 ft 369 kts 98°
2026-04-13 14:32 -6.84696 109.53918 15908 ft 368 kts 98°
2026-04-13 14:32 -6.85058 109.56494 15418 ft 367 kts 99°
2026-04-13 14:32 -6.85418 109.59030 14920 ft 365 kts 99°
2026-04-13 14:32 -6.85774 109.61554 14424 ft 364 kts 99°
2026-04-13 14:33 -6.86122 109.64032 13933 ft 362 kts 99°
2026-04-13 14:33 -6.86470 109.66531 13435 ft 360 kts 99°
2026-04-13 14:33 -6.86814 109.69019 12932 ft 358 kts 99°
2026-04-13 14:33 -6.87159 109.71487 12493 ft 354 kts 99°
2026-04-13 14:34 -6.87502 109.73931 11973 ft 352 kts 100°
2026-04-13 14:34 -6.87843 109.76363 11478 ft 350 kts 100°
2026-04-13 14:34 -6.88187 109.78782 10953 ft 348 kts 99°
2026-04-13 14:34 -6.88529 109.81188 10504 ft 345 kts 99°
2026-04-13 14:35 -6.88858 109.83527 10374 ft 331 kts 99°
2026-04-13 14:35 -6.89172 109.85776 10248 ft 319 kts 99°
2026-04-13 14:35 -6.89413 109.87948 10122 ft 307 kts 92°
2026-04-13 14:35 -6.89217 109.90058 9936 ft 300 kts 80°
2026-04-13 14:36 -6.88830 109.92104 9562 ft 298 kts 81°
2026-04-13 14:36 -6.88449 109.94143 9233 ft 294 kts 80°
2026-04-13 14:36 -6.88075 109.96155 8881 ft 291 kts 80°
2026-04-13 14:36 -6.87707 109.98138 8246 ft 287 kts 80°
2026-04-13 14:37 -6.87346 110.00094 7644 ft 281 kts 80°
2026-04-13 14:37 -6.86988 110.02032 7187 ft 281 kts 80°
2026-04-13 14:37 -6.86633 110.03956 6747 ft 281 kts 80°
2026-04-13 14:37 -6.86279 110.05868 6432 ft 275 kts 80°
2026-04-13 14:38 -6.85931 110.07750 5975 ft 271 kts 80°
2026-04-13 14:38 -6.85588 110.09607 5280 ft 269 kts 80°
2026-04-13 14:38 -6.85246 110.11446 4681 ft 265 kts 79°
2026-04-13 14:38 -6.84905 110.13260 4159 ft 264 kts 79°
2026-04-13 14:39 -6.84568 110.15067 3795 ft 258 kts 80°
2026-04-13 14:39 -6.84253 110.16794 3737 ft 243 kts 80°
2026-04-13 14:39 -6.83954 110.18423 3653 ft 230 kts 80°
2026-04-13 14:39 -6.83701 110.19975 3557 ft 221 kts 88°
2026-04-13 14:40 -6.83912 110.21450 3454 ft 213 kts 111°
2026-04-13 14:40 -6.84708 110.22683 3372 ft 204 kts 129°
2026-04-13 14:40 -6.85621 110.23758 3177 ft 201 kts 129°
2026-04-13 14:40 -6.86510 110.24812 2941 ft 191 kts 128°
2026-04-13 14:41 -6.87333 110.25787 2709 ft 178 kts 129°
2026-04-13 14:41 -6.88106 110.26702 2467 ft 166 kts 129°
2026-04-13 14:41 -6.88822 110.27551 2264 ft 153 kts 130°
2026-04-13 14:41 -6.89489 110.28340 2059 ft 145 kts 130°
2026-04-13 14:42 -6.90138 110.29110 1865 ft 143 kts 130°
2026-04-13 14:42 -6.90783 110.29872 1677 ft 143 kts 130°
2026-04-13 14:42 -6.91432 110.30642 1478 ft 145 kts 130°
2026-04-13 14:42 -6.92087 110.31419 1296 ft 146 kts 130°
2026-04-13 14:43 -6.92746 110.32199 1097 ft 146 kts 131°
2026-04-13 14:43 -6.93402 110.32977 907 ft 146 kts 130°
2026-04-13 14:43 -6.94059 110.33755 713 ft 145 kts 131°
2026-04-13 14:43 -6.94714 110.34531 520 ft 145 kts 131°
2026-04-13 14:44 -6.95361 110.35313 302 ft 146 kts 130°
2026-04-13 14:44 -6.96010 110.36086 116 ft 145 kts 131°
2026-04-13 14:44 -6.96654 110.36836 8 ft 130 kts 130°
2026-04-13 14:44 -6.97130 110.37399 4 ft 81 kts 130°
2026-04-13 14:45 -6.97372 110.37688 6 ft 34 kts 130°
2026-04-13 14:45 -6.97513 110.37855 7 ft 25 kts 130°
2026-04-13 14:45 -6.97589 110.37923 7 ft 9 kts 126°
2026-04-13 14:45 -6.97555 110.37909 6 ft 13 kts 303°
2026-04-13 14:46 -6.97504 110.37847 7 ft 11 kts 310°
2026-04-13 14:46 -6.97445 110.37778 8 ft 16 kts 310°
2026-04-13 14:46 -6.97364 110.37682 5 ft 19 kts 310°
2026-04-13 14:46 -6.97279 110.37581 5 ft 19 kts 310°
2026-04-13 14:47 -6.97197 110.37481 4 ft 17 kts 310°
2026-04-13 14:47 -6.97120 110.37413 4 ft 12 kts 355°
2026-04-13 14:47 -6.97066 110.37444 10 ft 7 kts 41°
2026-04-13 14:47 -6.97017 110.37486 15 ft 10 kts 40°
2026-04-13 14:48 -6.96977 110.37520 17 ft 6 kts 40°
2026-04-13 14:48 -6.96951 110.37542 18 ft 4 kts 40°
2026-04-13 14:48 -6.96926 110.37561 18 ft 7 kts 29°
2026-04-13 14:48 -6.96891 110.37546 18 ft 6 kts 308°
2026-04-13 14:49 -6.96847 110.37492 18 ft 12 kts 311°
2026-04-13 14:49 -6.96799 110.37435 18 ft 9 kts 310°
2026-04-13 14:49 -6.96766 110.37413 20 ft 3 kts 13°
2026-04-13 14:49 -6.96740 110.37433 19 ft 5 kts 42°
2026-04-13 14:50 -6.96728 110.37443 21 ft 1 kts 40°
2026-04-13 14:50 -6.96724 110.37447 19 ft 0 kts 40°
2026-04-13 14:50 -6.96718 110.37451 19 ft 2 kts 38°
2026-04-13 14:50 -6.96711 110.37457 19 ft 1 kts 39°
2026-04-13 14:51 -6.96711 110.37458 19 ft 0 kts 39°